GALAXY 37 (G-37)

Last updated on Tue Jul 01 2025 00:02:49 GMT+0000 (Coordinated Universal Time)

1 57493U 23112A 25181.30114370 .00000047 00000+0 00000+0 0 9992 2 57493 0.0242 61.8293 0001860 34.6002 163.5943 1.00272638 7015
UTC large
Height (km)
Speed (km/s)
/
Latitude / Longitude
Inclination (degrees)
Orbital Period (minutes)
Azimuth
Elevation
Range (km)
Doppler Factor

Next 0 passes for location: London (51.5072 / 0.1276)

Sorry there are no passes over London.